�������l�o���
Date,Time,MP-1(��Sv/h),MP-2(��Sv/h),MP-3(��Sv/h),MP-4(��Sv/h),MP-5(��Sv/h),MP-6(��Sv/h),MP-7(��Sv/h),MP-8(��Sv/h),����,����(m/s),���J
2017/03/05,00:00,1.050,1.714,1.166,2.028,1.419,0.554,1.018,0.944,���k��,10.7,��
2017/03/05,00:10,1.049,1.718,1.165,2.031,1.416,0.554,1.019,0.946,���k��,10.2,��
2017/03/05,00:20,1.049,1.718,1.165,2.029,1.419,0.556,1.020,0.945,���k��,9.7,��
2017/03/05,00:30,1.049,1.716,1.165,2.029,1.419,0.554,1.019,0.945,���k��,9.0,��
2017/03/05,00:40,1.047,1.718,1.165,2.030,1.420,0.555,1.018,0.944,���k��,9.2,��
2017/03/05,00:50,1.048,1.719,1.168,2.029,1.420,0.555,1.016,0.945,���k��,8.3,��
2017/03/05,01:00,1.048,1.718,1.166,2.029,1.420,0.555,1.017,0.944,���k��,9.9,��
2017/03/05,01:10,1.047,1.718,1.164,2.028,1.417,0.556,1.018,0.945,���k��,9.3,��
2017/03/05,01:20,1.046,1.715,1.166,2.030,1.418,0.555,1.018,0.945,���k��,9.6,��
2017/03/05,01:30,1.049,1.719,1.166,2.029,1.419,0.555,1.021,0.945,��,9.4,��
2017/03/05,01:40,1.046,1.719,1.163,2.032,1.417,0.556,1.019,0.944,��,8.8,��
2017/03/05,01:50,1.047,1.718,1.163,2.030,1.418,0.555,1.020,0.945,���k��,8.2,��
2017/03/05,02:00,1.048,1.721,1.164,2.029,1.419,0.556,1.018,0.945,���k��,10.4,��
2017/03/05,02:10,1.050,1.716,1.164,2.031,1.419,0.554,1.019,0.945,��,10.6,��
2017/03/05,02:20,1.047,1.716,1.162,2.031,1.418,0.556,1.018,0.944,���k��,9.9,��
2017/03/05,02:30,1.048,1.715,1.163,2.032,1.418,0.555,1.018,0.944,���k��,10.6,��
2017/03/05,02:40,1.048,1.716,1.166,2.027,1.415,0.555,1.017,0.947,���k��,11.9,��
2017/03/05,02:50,1.048,1.717,1.164,2.029,1.419,0.556,1.018,0.944,���k��,11.7,��
2017/03/05,03:00,1.046,1.715,1.166,2.026,1.418,0.555,1.019,0.946,��,10.1,��
2017/03/05,03:10,1.049,1.719,1.165,2.030,1.418,0.554,1.019,0.945,���k��,11.0,��
2017/03/05,03:20,1.046,1.718,1.163,2.031,1.417,0.553,1.019,0.947,���k��,10.3,��
2017/03/05,03:30,1.047,1.716,1.166,2.029,1.421,0.555,1.019,0.945,���k��,10.3,��
2017/03/05,03:40,1.045,1.719,1.165,2.032,1.418,0.556,1.018,0.946,���k��,10.8,��
2017/03/05,03:50,1.046,1.714,1.166,2.030,1.417,0.556,1.017,0.946,���k��,10.1,��
2017/03/05,04:00,1.050,1.717,1.163,2.029,1.419,0.557,1.019,0.946,���k��,8.9,��
2017/03/05,04:10,1.049,1.716,1.165,2.029,1.416,0.555,1.018,0.946,�k��,8.5,��
2017/03/05,04:20,1.048,1.715,1.164,2.032,1.417,0.555,1.017,0.945,���k��,6.9,��
2017/03/05,04:30,1.043,1.717,1.164,2.030,1.416,0.554,1.019,0.943,�k��,5.4,��
2017/03/05,04:40,1.047,1.714,1.163,2.029,1.418,0.555,1.019,0.944,�k�k��,4.0,��
2017/03/05,04:50,1.045,1.717,1.164,2.028,1.417,0.554,1.016,0.945,�k,3.7,��
2017/03/05,05:00,1.045,1.713,1.162,2.029,1.417,0.553,1.018,0.944,�k,4.0,��
2017/03/05,05:10,1.047,1.716,1.163,2.026,1.417,0.554,1.014,0.944,�k�k��,4.0,��
2017/03/05,05:20,1.044,1.715,1.160,2.027,1.417,0.555,1.017,0.945,�k�k��,4.3,��
2017/03/05,05:30,1.045,1.717,1.162,2.028,1.416,0.554,1.016,0.944,�k�k��,4.2,��
2017/03/05,05:40,1.046,1.716,1.162,2.028,1.415,0.551,1.016,0.945,�k�k��,4.2,��
2017/03/05,05:50,1.045,1.715,1.163,2.028,1.414,0.555,1.017,0.942,�k�k��,4.4,��
2017/03/05,06:00,1.044,1.714,1.163,2.028,1.417,0.553,1.016,0.944,�k�k��,4.4,��
2017/03/05,06:10,1.044,1.713,1.162,2.029,1.417,0.555,1.016,0.944,�k�k��,4.9,��
2017/03/05,06:20,1.045,1.715,1.162,2.026,1.416,0.553,1.018,0.945,�k,5.5,��
2017/03/05,06:30,1.044,1.716,1.162,2.024,1.417,0.552,1.017,0.943,�k�k��,4.9,��
2017/03/05,06:40,1.044,1.713,1.162,2.024,1.416,0.551,1.015,0.944,�k,5.3,��
2017/03/05,06:50,1.045,1.716,1.162,2.025,1.417,0.553,1.015,0.942,�k�k��,4.4,��
2017/03/05,07:00,1.046,1.716,1.160,2.026,1.416,0.553,1.015,0.943,�k�k��,3.0,��
2017/03/05,07:10,1.044,1.717,1.159,2.031,1.418,0.552,1.015,0.944,�k�k��,2.6,��
2017/03/05,07:20,1.047,1.717,1.164,2.025,1.416,0.553,1.015,0.942,�k��,2.6,��
2017/03/05,07:30,1.046,1.715,1.162,2.029,1.417,0.552,1.015,0.943,�k��,2.0,��
2017/03/05,07:40,1.048,1.719,1.163,2.029,1.415,0.553,1.017,0.944,�k��,3.4,��
2017/03/05,07:50,1.047,1.719,1.162,2.029,1.416,0.554,1.018,0.943,�k�k��,3.6,��
2017/03/05,08:00,1.046,1.719,1.161,2.029,1.416,0.553,1.018,0.946,�k�k��,3.7,��
2017/03/05,08:10,1.044,1.718,1.164,2.030,1.416,0.554,1.019,0.943,�k�k��,3.6,��
2017/03/05,08:20,1.046,1.718,1.163,2.030,1.417,0.553,1.015,0.944,�k�k��,3.2,��
2017/03/05,08:30,1.048,1.720,1.163,2.029,1.418,0.553,1.020,0.942,�k�k��,3.9,��
2017/03/05,08:40,1.048,1.720,1.162,2.029,1.416,0.553,1.020,0.945,�k�k��,3.5,��
2017/03/05,08:50,1.046,1.718,1.163,2.032,1.418,0.552,1.016,0.943,�k�k��,4.4,��
2017/03/05,09:00,1.048,1.719,1.162,2.032,1.419,0.553,1.015,0.945,�k�k��,3.8,��
2017/03/05,09:10,1.047,1.718,1.165,2.031,1.423,0.554,1.014,0.946,�k��,3.5,��
2017/03/05,09:20,1.045,1.720,1.166,2.028,1.419,0.553,1.015,0.944,���k��,4.4,��
2017/03/05,09:30,1.049,1.717,1.163,2.031,1.418,0.553,1.017,0.945,���k��,4.5,��
2017/03/05,09:40,1.046,1.717,1.165,2.031,1.417,0.552,1.017,0.947,��,4.1,��
2017/03/05,09:50,1.045,1.716,1.164,2.029,1.417,0.556,1.017,0.944,���k��,3.3,��
2017/03/05,10:00,1.047,1.720,1.165,2.035,1.418,0.554,1.016,0.943,���쓌,3.9,��
2017/03/05,10:10,1.048,1.719,1.165,2.031,1.420,0.554,1.017,0.946,��,3.8,��
2017/03/05,10:20,1.048,1.721,1.164,2.034,1.420,0.554,1.016,0.945,��,4.5,��
2017/03/05,10:30,1.050,1.721,1.164,2.029,1.422,0.553,1.016,0.944,��,4.9,��
2017/03/05,10:40,1.049,1.721,1.163,2.032,1.423,0.552,1.017,0.945,��,3.8,��
2017/03/05,10:50,1.049,1.720,1.165,2.036,1.422,0.554,1.015,0.941,��,3.6,��
2017/03/05,11:00,1.049,1.722,1.165,2.031,1.422,0.554,1.015,0.942,���쓌,4.2,��
2017/03/05,11:10,1.050,1.722,1.163,2.036,1.423,0.555,1.018,0.942,�쓌,3.4,��
2017/03/05,11:20,1.050,1.723,1.167,2.032,1.424,0.555,1.017,0.943,�쓌,4.1,��
2017/03/05,11:30,1.051,1.723,1.165,2.036,1.422,0.554,1.017,0.944,�쓌,3.4,��
2017/03/05,11:40,1.055,1.724,1.166,2.031,1.423,0.554,1.017,0.941,�쓌,4.3,��
2017/03/05,11:50,1.051,1.725,1.167,2.034,1.425,0.555,1.017,0.941,���쓌,4.2,��
2017/03/05,12:00,1.050,1.726,1.167,2.035,1.421,0.555,1.014,0.944,���쓌,4.5,��
2017/03/05,12:10,1.051,1.725,1.169,2.035,1.422,0.554,1.015,0.946,�쓌,4.7,��
2017/03/05,12:20,1.051,1.724,1.168,2.030,1.422,0.554,1.015,0.943,���쓌,3.7,��
2017/03/05,12:30,1.052,1.726,1.166,2.033,1.421,0.556,1.016,0.942,�쓌,4.6,��
2017/03/05,12:40,1.053,1.723,1.170,2.035,1.424,0.555,1.017,0.944,�쓌,5.4,��
2017/03/05,12:50,1.053,1.722,1.166,2.034,1.423,0.554,1.017,0.944,�쓌,4.1,��
2017/03/05,13:00,1.053,1.725,1.168,2.035,1.424,0.555,1.017,0.946,�쓌,5.0,��
2017/03/05,13:10,1.053,1.724,1.168,2.034,1.423,0.555,1.015,0.943,�쓌,5.3,��
2017/03/05,13:20,1.053,1.725,1.168,2.036,1.422,0.556,1.018,0.942,���쓌,4.9,��
2017/03/05,13:30,1.050,1.727,1.168,2.036,1.422,0.555,1.016,0.943,���쓌,4.6,��
2017/03/05,13:40,1.053,1.729,1.167,2.035,1.424,0.554,1.017,0.945,�쓌,4.5,��
2017/03/05,13:50,1.054,1.730,1.170,2.034,1.425,0.555,1.017,0.946,�쓌,5.0,��
2017/03/05,14:00,1.054,1.729,1.169,2.035,1.428,0.555,1.015,0.945,�쓌,4.0,��
2017/03/05,14:10,1.053,1.728,1.169,2.037,1.427,0.556,1.018,0.945,�쓌,3.9,��
2017/03/05,14:20,1.054,1.727,1.169,2.034,1.425,0.554,1.017,0.945,�쓌,4.2,��
2017/03/05,14:30,1.053,1.727,1.168,2.038,1.426,0.555,1.015,0.945,�쓌,4.5,��
2017/03/05,14:40,1.055,1.729,1.167,2.036,1.426,0.557,1.017,0.946,�쓌,4.3,��
2017/03/05,14:50,1.053,1.729,1.170,2.038,1.426,0.555,1.015,0.947,�쓌,5.3,��
2017/03/05,15:00,1.052,1.729,1.169,2.038,1.424,0.556,1.016,0.945,��쓌,4.9,��
2017/03/05,15:10,1.053,1.728,1.168,2.036,1.424,0.555,1.016,0.945,��쓌,4.6,��
2017/03/05,15:20,1.055,1.726,1.168,2.036,1.426,0.556,1.018,0.945,��쓌,5.4,��
2017/03/05,15:30,1.052,1.728,1.168,2.038,1.427,0.555,1.019,0.944,��쓌,5.1,��
2017/03/05,15:40,1.056,1.729,1.168,2.040,1.426,0.556,1.018,0.946,��쓌,5.1,��
2017/03/05,15:50,1.054,1.726,1.170,2.034,1.427,0.556,1.015,0.947,��쓌,5.6,��
2017/03/05,16:00,1.055,1.728,1.172,2.032,1.425,0.556,1.015,0.947,��쓌,5.6,��
2017/03/05,16:10,1.053,1.731,1.172,2.034,1.424,0.555,1.017,0.945,��쓌,6.8,��
2017/03/05,16:20,1.054,1.729,1.170,2.037,1.427,0.556,1.017,0.945,��쓌,5.5,��
2017/03/05,16:30,1.053,1.730,1.169,2.036,1.428,0.557,1.016,0.944,��쓌,5.7,��
2017/03/05,16:40,1.054,1.731,1.169,2.037,1.428,0.555,1.017,0.943,��쓌,5.3,��
2017/03/05,16:50,1.051,1.730,1.168,2.033,1.427,0.557,1.019,0.943,��쓌,4.9,��
2017/03/05,17:00,1.053,1.727,1.168,2.034,1.429,0.556,1.016,0.946,��쓌,5.1,��
2017/03/05,17:10,1.053,1.729,1.167,2.035,1.426,0.554,1.018,0.945,��쓌,4.0,��
2017/03/05,17:20,1.051,1.729,1.165,2.037,1.427,0.556,1.019,0.944,��쓌,4.6,��
2017/03/05,17:30,1.051,1.728,1.167,2.034,1.428,0.554,1.020,0.944,��쓌,4.9,��
2017/03/05,17:40,1.051,1.728,1.168,2.034,1.425,0.556,1.019,0.946,��쓌,4.6,��
2017/03/05,17:50,1.052,1.728,1.169,2.034,1.424,0.556,1.018,0.945,��쓌,4.1,��
2017/03/05,18:00,1.051,1.728,1.167,2.034,1.429,0.555,1.019,0.945,��쓌,4.5,��
2017/03/05,18:10,1.050,1.727,1.167,2.033,1.425,0.556,1.019,0.947,��쓌,4.9,��
2017/03/05,18:20,1.056,1.725,1.166,2.034,1.424,0.556,1.019,0.944,��쓌,4.6,��
2017/03/05,18:30,1.050,1.726,1.166,2.035,1.424,0.557,1.018,0.945,��쓌,4.2,��
2017/03/05,18:40,1.052,1.725,1.168,2.036,1.425,0.556,1.020,0.944,��쓌,4.9,��
2017/03/05,18:50,1.052,1.728,1.167,2.035,1.428,0.555,1.019,0.947,��,5.3,��
2017/03/05,19:00,1.053,1.724,1.169,2.035,1.426,0.556,1.019,0.946,��,4.8,��
2017/03/05,19:10,1.052,1.726,1.169,2.034,1.424,0.556,1.020,0.945,��,5.1,��
2017/03/05,19:20,1.053,1.726,1.168,2.034,1.429,0.556,1.020,0.944,��,5.2,��
2017/03/05,19:30,1.054,1.725,1.169,2.033,1.424,0.556,1.018,0.946,��,5.0,��
2017/03/05,19:40,1.051,1.724,1.168,2.034,1.427,0.556,1.021,0.946,��,5.1,��
2017/03/05,19:50,1.054,1.724,1.168,2.031,1.426,0.555,1.018,0.944,��,5.1,��
2017/03/05,20:00,1.052,1.726,1.166,2.035,1.427,0.556,1.019,0.945,��,5.1,��
2017/03/05,20:10,1.052,1.723,1.166,2.036,1.423,0.557,1.019,0.946,��,4.8,��
2017/03/05,20:20,1.051,1.724,1.165,2.034,1.425,0.556,1.019,0.944,��,4.6,��
2017/03/05,20:30,1.048,1.726,1.167,2.032,1.427,0.555,1.018,0.944,��,4.9,��
2017/03/05,20:40,1.054,1.723,1.165,2.035,1.425,0.555,1.019,0.944,��,4.2,��
2017/03/05,20:50,1.052,1.724,1.164,2.033,1.429,0.555,1.017,0.945,��,4.6,��
2017/03/05,21:00,1.052,1.724,1.165,2.037,1.427,0.555,1.018,0.944,��,4.8,��
2017/03/05,21:10,1.050,1.724,1.166,2.033,1.426,0.555,1.020,0.944,��,5.5,��
2017/03/05,21:20,1.052,1.726,1.166,2.034,1.427,0.556,1.020,0.944,��,6.1,��
2017/03/05,21:30,1.052,1.723,1.167,2.033,1.425,0.557,1.019,0.945,��,6.3,��
2017/03/05,21:40,1.050,1.724,1.166,2.033,1.425,0.556,1.017,0.944,��,5.6,��
2017/03/05,21:50,1.052,1.724,1.168,2.033,1.425,0.556,1.018,0.946,��쓌,5.5,��
2017/03/05,22:00,1.052,1.723,1.169,2.029,1.426,0.556,1.020,0.945,��쓌,5.3,��
2017/03/05,22:10,1.050,1.725,1.169,2.035,1.426,0.556,1.020,0.944,��쓌,4.6,��
2017/03/05,22:20,1.051,1.721,1.168,2.031,1.427,0.556,1.018,0.944,��쓌,3.7,��
2017/03/05,22:30,1.054,1.724,1.168,2.032,1.424,0.556,1.017,0.945,��쓌,3.6,��
2017/03/05,22:40,1.051,1.724,1.167,2.033,1.427,0.556,1.019,0.945,��쓌,2.6,��
2017/03/05,22:50,1.053,1.723,1.167,2.035,1.427,0.555,1.018,0.944,��,1.5,��
2017/03/05,23:00,1.053,1.723,1.167,2.036,1.427,0.556,1.019,0.945,��쓌,2.9,��
2017/03/05,23:10,1.054,1.724,1.169,2.034,1.426,0.555,1.021,0.945,��쐼,2.0,��
2017/03/05,23:20,1.054,1.723,1.168,2.035,1.429,0.557,1.020,0.944,���쐼,1.9,��
2017/03/05,23:30,1.054,1.724,1.167,2.035,1.425,0.555,1.018,0.944,��,2.3,��
2017/03/05,23:40,1.054,1.726,1.167,2.033,1.426,0.556,1.019,0.946,���쐼,2.0,��
2017/03/05,23:50,1.054,1.727,1.168,2.035,1.428,0.556,1.019,0.945,�쐼,1.9,��
